Time_in_sec,gx,gy,gz
1314276032.15644145,-0.00189366,-0.03747841,-0.99929564
1314276032.20463395,-0.00199203,-0.03742422,-0.99929748
1314276032.25645280,-0.00216490,-0.03745999,-0.99929578
1314276032.30444670,-0.00230472,-0.03755383,-0.99929195
1314276032.35562229,-0.00155236,-0.03751370,-0.99929491
1314276032.40480185,-0.00172509,-0.03745814,-0.99929671
1314276032.45647764,-0.00211985,-0.03730334,-0.99930174
1314276032.50451612,-0.00193616,-0.03730390,-0.99930209
1314276032.55646396,-0.00180903,-0.03750563,-0.99929478
1314276032.60858703,-0.00168550,-0.03690494,-0.99931736
1314276032.65590835,-0.00164852,-0.03685713,-0.99931919
1314276032.70782304,-0.00150569,-0.03680055,-0.99932150
1314276032.75597644,-0.00141131,-0.03664378,-0.99932739
1314276032.80856514,-0.00128360,-0.03661194,-0.99932873
1314276032.85545778,-0.00165137,-0.03637369,-0.99933689
1314276032.90778899,-0.00167832,-0.03635970,-0.99933736
1314276032.96048069,-0.00165441,-0.03668833,-0.99932539
1314276033.00841570,-0.00187909,-0.03642000,-0.99933481
1314276033.05568171,-0.00190054,-0.03648952,-0.99933223
1314276033.10845733,-0.00198814,-0.03667540,-0.99932525
1314276033.15587163,-0.00217748,-0.03681801,-0.99931961
1314276033.20845366,-0.00196701,-0.03675620,-0.99932233
1314276033.25648999,-0.00196133,-0.03674678,-0.99932268
1314276033.30860353,-0.00183800,-0.03686419,-0.99931859
1314276033.35642433,-0.00204686,-0.03689661,-0.99931699
1314276033.40819001,-0.00236890,-0.03707774,-0.99930958
1314276033.45562148,-0.00265919,-0.03697598,-0.99931262
1314276033.50745511,-0.00264315,-0.03711991,-0.99930732
1314276033.55545092,-0.00253108,-0.03692824,-0.99931471
1314276033.60499048,-0.00339972,-0.03610754,-0.99934213
1314276033.65623188,-0.00329297,-0.03616881,-0.99934027
1314276033.70843911,-0.00344331,-0.03629445,-0.99933521
1314276033.75650716,-0.00344895,-0.03634158,-0.99933347
1314276033.80461097,-0.00367347,-0.03621431,-0.99933729
1314276033.85546732,-0.00394867,-0.03572413,-0.99935389
1314276033.90449238,-0.00404541,-0.03585427,-0.99934884
1314276033.95545840,-0.00379074,-0.03604719,-0.99934290
1314276034.00453544,-0.00377809,-0.03637418,-0.99933110
1314276034.05546808,-0.00375447,-0.03619948,-0.99933753
1314276034.10745549,-0.00402432,-0.03601864,-0.99934302
1314276034.15645456,-0.00414504,-0.03587581,-0.99934766
1314276034.20445728,-0.00438859,-0.03577727,-0.99935015
1314276034.25553393,-0.00418543,-0.03582621,-0.99934927
1314276034.30454922,-0.00421671,-0.03589132,-0.99934680
1314276034.35545206,-0.00484925,-0.03520737,-0.99936826
1314276034.40466595,-0.00460714,-0.03500109,-0.99937665
1314276034.45586610,-0.00484103,-0.03486474,-0.99938032
1314276034.50830269,-0.00477339,-0.03490922,-0.99937909
1314276034.56055164,-0.00507568,-0.03468045,-0.99938556
1314276034.60832453,-0.00558681,-0.03429893,-0.99939600
1314276034.65548921,-0.00593980,-0.03422218,-0.99939660
1314276034.70444393,-0.00605079,-0.03428581,-0.99939375
1314276034.75547671,-0.00614914,-0.03438935,-0.99938959
1314276034.80445242,-0.00636219,-0.03430863,-0.99939103
1314276034.85546803,-0.00630632,-0.03470680,-0.99937764
1314276034.90756464,-0.00619727,-0.03449751,-0.99938557
1314276034.95836997,-0.00606465,-0.03462113,-0.99938211
1314276035.00464010,-0.00631120,-0.03473440,-0.99937665
1314276035.05547333,-0.00620803,-0.03462922,-0.99938095
1314276035.10450482,-0.00645057,-0.03473926,-0.99937559
1314276035.15579176,-0.00643129,-0.03491526,-0.99936958
1314276035.20446372,-0.00636111,-0.03499807,-0.99936714
1314276035.25567031,-0.00616620,-0.03516252,-0.99936258
1314276035.30806017,-0.00621826,-0.03499996,-0.99936797
1314276035.35567474,-0.00617786,-0.03514765,-0.99936304
1314276035.40404701,-0.00609535,-0.03518331,-0.99936229
1314276035.45553350,-0.00606416,-0.03513434,-0.99936420
1314276035.50444889,-0.00613105,-0.03487124,-0.99937301
1314276035.55595255,-0.00626845,-0.03491900,-0.99937049
1314276035.60844636,-0.00578767,-0.03470900,-0.99938070
1314276035.65568614,-0.00623938,-0.03486140,-0.99937268
1314276035.70747018,-0.00616676,-0.03495282,-0.99936994
1314276035.75683284,-0.00641668,-0.03467111,-0.99937818
1314276035.80860424,-0.00657157,-0.03469944,-0.99937619
1314276035.85659194,-0.00676005,-0.03480731,-0.99937118
1314276035.91246819,-0.00648935,-0.03467956,-0.99937741
1314276035.95558858,-0.00641902,-0.03472516,-0.99937629
1314276036.00843716,-0.00635252,-0.03473536,-0.99937636
1314276036.05578494,-0.00632717,-0.03477561,-0.99937512
1314276036.10747981,-0.00652509,-0.03463676,-0.99937867
1314276036.15845466,-0.00652854,-0.03441756,-0.99938622
1314276036.20858765,-0.00651838,-0.03430429,-0.99939018
1314276036.25658965,-0.00655967,-0.03434184,-0.99938862
1314276036.29835916,-0.00654392,-0.03439850,-0.99938677
1314276036.35648394,-0.00672315,-0.03419092,-0.99939271
1314276036.40872645,-0.00712679,-0.03433916,-0.99938483
1314276036.45546842,-0.00721242,-0.03449956,-0.99937869
1314276036.50860023,-0.00738642,-0.03443009,-0.99937981
1314276036.56045127,-0.00755960,-0.03447579,-0.99937694
1314276036.60857415,-0.00848450,-0.03345832,-0.99940410
1314276036.65657091,-0.00848510,-0.03362776,-0.99939841
1314276036.70844507,-0.00865671,-0.03387057,-0.99938874
1314276036.75550747,-0.00878486,-0.03360332,-0.99939664
1314276036.80848169,-0.00891089,-0.03378183,-0.99938951
1314276036.85551357,-0.00908263,-0.03347023,-0.99939844
1314276036.90753508,-0.00957282,-0.03307937,-0.99940688
1314276036.95806313,-0.00949521,-0.03319172,-0.99940390
1314276037.00972342,-0.00951272,-0.03317475,-0.99940429
1314276037.05546308,-0.00942681,-0.03321269,-0.99940385
1314276037.10451984,-0.00883306,-0.03263101,-0.99942843
1314276037.15547156,-0.00878440,-0.03252000,-0.99943248
1314276037.20452714,-0.00889649,-0.03258922,-0.99942923
1314276037.25635982,-0.00898398,-0.03246282,-0.99943257
1314276037.30454016,-0.00898391,-0.03256500,-0.99942924
1314276037.35635638,-0.00897464,-0.03242664,-0.99943382
1314276037.40454412,-0.00963648,-0.03197584,-0.99944219
1314276037.45557618,-0.00984089,-0.03174250,-0.99944763
1314276037.50443983,-0.00986151,-0.03173716,-0.99944760
1314276037.55648828,-0.00984644,-0.03159612,-0.99945222
1314276037.60446858,-0.00987705,-0.03091230,-0.99947330
1314276037.65544057,-0.00989911,-0.03115305,-0.99946560
1314276037.70446110,-0.00984169,-0.03104887,-0.99946941
1314276037.75646305,-0.00973691,-0.03112021,-0.99946822
1314276037.80469251,-0.00977429,-0.03110321,-0.99946839
1314276037.85649300,-0.00998243,-0.03099505,-0.99946969
1314276037.90464306,-0.00884129,-0.03121603,-0.99947356
1314276037.95648694,-0.00871734,-0.03093403,-0.99948341
1314276038.00450277,-0.00877949,-0.03111995,-0.99947710
1314276038.05548501,-0.00871978,-0.03132252,-0.99947129
1314276038.10757303,-0.00859477,-0.03132266,-0.99947237
1314276038.15644145,-0.00880842,-0.03111638,-0.99947695
1314276038.20848107,-0.00887964,-0.03108106,-0.99947742
1314276038.25570011,-0.00871309,-0.03091488,-0.99948404
1314276038.29820728,-0.00879072,-0.03095180,-0.99948222
1314276038.35549378,-0.00877418,-0.03099002,-0.99948118
1314276038.40448666,-0.00911512,-0.03205104,-0.99944467
1314276038.45599174,-0.00913517,-0.03179918,-0.99945253
1314276038.50807142,-0.00924926,-0.03184472,-0.99945003
1314276038.55689955,-0.00945687,-0.03192014,-0.99944568
1314276038.60846400,-0.00973700,-0.03228838,-0.99943116
1314276038.65645576,-0.00966530,-0.03229739,-0.99943157
1314276038.70876598,-0.00995963,-0.03220151,-0.99943177
1314276038.75544167,-0.01005535,-0.03226427,-0.99942879
1314276038.80844212,-0.01029679,-0.03212647,-0.99943077
1314276038.85544086,-0.01053669,-0.03189151,-0.99943580
1314276038.90843511,-0.01022481,-0.03217167,-0.99943006
1314276038.95645070,-0.01037416,-0.03252612,-0.99941704
1314276039.00844240,-0.01030507,-0.03281430,-0.99940834
1314276039.05969548,-0.01041420,-0.03266742,-0.99941202
1314276039.10843825,-0.01078341,-0.03215990,-0.99942456
1314276039.15549421,-0.01087096,-0.03217424,-0.99942315
1314276039.20845127,-0.01064370,-0.03203399,-0.99943010
1314276039.25594068,-0.01064874,-0.03198277,-0.99943169
1314276039.30062103,-0.01044927,-0.03181812,-0.99943905
1314276039.35643196,-0.01042493,-0.03185301,-0.99943820
1314276039.40758896,-0.01044342,-0.03163585,-0.99944490
1314276039.45659804,-0.01046648,-0.03183076,-0.99943847
1314276039.50765300,-0.01058445,-0.03170994,-0.99944107
1314276039.55554152,-0.01063720,-0.03171658,-0.99944030
1314276039.60844064,-0.01073924,-0.03162600,-0.99944208
1314276039.65554237,-0.01063902,-0.03172152,-0.99944012
1314276039.70456338,-0.01083279,-0.03156205,-0.99944309
1314276039.75790858,-0.01089089,-0.03164136,-0.99943995
1314276039.80761862,-0.01082751,-0.03155107,-0.99944349
1314276039.85600901,-0.01097133,-0.03139789,-0.99944675
1314276039.90455580,-0.01048988,-0.03169013,-0.99944269
1314276039.95548582,-0.01042937,-0.03172562,-0.99944220
1314276040.00446939,-0.01046511,-0.03189134,-0.99943655
1314276040.05560637,-0.01057139,-0.03180531,-0.99943818
1314276040.10539699,-0.00998977,-0.03233222,-0.99942725
1314276040.15576172,-0.00984243,-0.03208852,-0.99943657
1314276040.20449185,-0.01010180,-0.03210239,-0.99943353
1314276040.25550842,-0.01013576,-0.03211602,-0.99943275
1314276040.29643822,-0.01003614,-0.03224473,-0.99942961
1314276040.35730863,-0.01015225,-0.03224610,-0.99942840
1314276040.40443110,-0.01032533,-0.03254165,-0.99941704
1314276040.45592189,-0.01026514,-0.03262194,-0.99941505
1314276040.50490665,-0.01055132,-0.03276559,-0.99940737
1314276040.55623317,-0.01082843,-0.03283712,-0.99940206
1314276040.60443878,-0.01131245,-0.03228555,-0.99941466
1314276040.65724373,-0.01133816,-0.03241070,-0.99941032
1314276040.70456576,-0.01134010,-0.03246365,-0.99940858
1314276040.75584865,-0.01140894,-0.03236993,-0.99941084
1314276040.80447006,-0.01140306,-0.03229434,-0.99941335
1314276040.85583377,-0.01156002,-0.03191417,-0.99942376
1314276040.90748692,-0.01120158,-0.03188575,-0.99942875
1314276040.95933247,-0.01099774,-0.03171873,-0.99943633
1314276041.00748944,-0.01114843,-0.03176914,-0.99943306
1314276041.05551147,-0.01086488,-0.03155863,-0.99944285
1314276041.10444927,-0.01013333,-0.03113165,-0.99946392
1314276041.15547705,-0.01018729,-0.03088490,-0.99947103
1314276041.20450211,-0.01030449,-0.03103624,-0.99946514
1314276041.25548983,-0.01040807,-0.03089231,-0.99946853
1314276041.29558730,-0.01038391,-0.03086511,-0.99946962
1314276041.35597110,-0.01049712,-0.03076369,-0.99947156
1314276041.40443063,-0.01006966,-0.03077172,-0.99947571
1314276041.45545435,-0.01021895,-0.03056839,-0.99948044
1314276041.50446415,-0.01016455,-0.03057236,-0.99948087
1314276041.55659270,-0.01006113,-0.03078142,-0.99947550
1314276041.60844803,-0.00983270,-0.03061585,-0.99948286
1314276041.64849377,-0.00982611,-0.03074447,-0.99947898
1314276041.70786238,-0.00995672,-0.03080753,-0.99947574
1314276041.75644541,-0.01010342,-0.03067785,-0.99947826
1314276041.80748606,-0.01022605,-0.03077203,-0.99947412
1314276041.85557151,-0.01051885,-0.03067821,-0.99947396
1314276041.90863919,-0.01050714,-0.03121194,-0.99945756
1314276041.95649791,-0.01056618,-0.03105494,-0.99946183
1314276042.00844765,-0.01043408,-0.03074991,-0.99947265
1314276042.05599523,-0.01030338,-0.03082228,-0.99947177
1314276042.10470176,-0.00975999,-0.03168282,-0.99945032
1314276042.15646291,-0.01009977,-0.03173122,-0.99944541
1314276042.20773339,-0.00994673,-0.03169657,-0.99944804
1314276042.25651932,-0.00987320,-0.03185529,-0.99944373
1314276042.29645395,-0.00988506,-0.03199840,-0.99943904
1314276042.35649800,-0.01014551,-0.03182734,-0.99944189
1314276042.40843511,-0.01020689,-0.03204640,-0.99943426
1314276042.45650220,-0.01011271,-0.03195317,-0.99943821
1314276042.50865221,-0.01022832,-0.03200381,-0.99943541
1314276042.55826306,-0.01041741,-0.03175393,-0.99944143
1314276042.60462356,-0.01057359,-0.03162983,-0.99944372
1314276042.65550780,-0.01073344,-0.03164883,-0.99944142
1314276042.70841980,-0.01072035,-0.03144689,-0.99944793
1314276042.75546217,-0.01081000,-0.03143312,-0.99944740
1314276042.80845141,-0.01078033,-0.03145406,-0.99944706
1314276042.85649538,-0.01062903,-0.03132367,-0.99945278
1314276042.90744972,-0.01056904,-0.03045761,-0.99948018
1314276042.95646548,-0.01044055,-0.03025026,-0.99948783
1314276043.00446272,-0.01049594,-0.03043500,-0.99948164
1314276043.05556846,-0.01067417,-0.03013723,-0.99948877
1314276043.10448599,-0.01022930,-0.03000828,-0.99949731
1314276043.15642142,-0.00993273,-0.03008675,-0.99949794
1314276043.20447111,-0.00996239,-0.02986731,-0.99950422
1314276043.25546598,-0.01010777,-0.03015544,-0.99949411
1314276043.29649091,-0.01018109,-0.03016332,-0.99949313
1314276043.35680795,-0.01027431,-0.03025110,-0.99948952
1314276043.40441465,-0.00960310,-0.03033768,-0.99949357
1314276043.45546699,-0.00955202,-0.03015655,-0.99949955
1314276043.50445008,-0.00966841,-0.03004324,-0.99950184
1314276043.55544329,-0.00973367,-0.03013195,-0.99949853
1314276043.60449696,-0.01012033,-0.03053978,-0.99948232
1314276043.65546727,-0.00995006,-0.03039795,-0.99948835
1314276043.70846295,-0.01031655,-0.03021938,-0.99949005
1314276043.75644636,-0.01022240,-0.03003936,-0.99949644
1314276043.79545522,-0.01013236,-0.02987939,-0.99950215
1314276043.85545659,-0.00999440,-0.02986382,-0.99950401
1314276043.90444398,-0.00972902,-0.03038773,-0.99949084
1314276043.95614123,-0.00986984,-0.03035390,-0.99949048
1314276044.00450206,-0.00981563,-0.03036375,-0.99949072
1314276044.05614853,-0.00991058,-0.03019816,-0.99949480
1314276044.11033440,-0.01008358,-0.02948013,-0.99951450
1314276044.16054106,-0.01021940,-0.02947952,-0.99951314
1314276044.21044803,-0.01050562,-0.02928748,-0.99951582
1314276044.25544620,-0.01020971,-0.02914602,-0.99952302
1314276044.29645920,-0.01024285,-0.02923787,-0.99952000
1314276044.35547304,-0.01001647,-0.02928553,-0.99952090
1314276044.40445018,-0.00932385,-0.02877375,-0.99954246
1314276044.45799065,-0.00941663,-0.02928488,-0.99952675
1314276044.50756860,-0.00946584,-0.02933761,-0.99952474
1314276044.55810809,-0.00953049,-0.02933206,-0.99952429
1314276044.60847783,-0.00922971,-0.02944753,-0.99952371
1314276044.65548897,-0.00915247,-0.02944920,-0.99952438
1314276044.70845127,-0.00923965,-0.02946115,-0.99952322
1314276044.75589824,-0.00936980,-0.02950771,-0.99952064
1314276044.79646754,-0.00951502,-0.02970566,-0.99951340
1314276044.85592580,-0.00952665,-0.02954449,-0.99951807
1314276044.90749693,-0.00886826,-0.02967039,-0.99952040
1314276044.95573545,-0.00882055,-0.02958367,-0.99952339
1314276045.00857925,-0.00880751,-0.02953530,-0.99952493
1314276045.05651259,-0.00874670,-0.02948750,-0.99952688
1314276045.10846639,-0.00891776,-0.02897530,-0.99954035
1314276045.15555120,-0.00877281,-0.02901003,-0.99954062
1314276045.20844507,-0.00899622,-0.02919317,-0.99953330
1314276045.25544882,-0.00910574,-0.02911455,-0.99953461
1314276045.29651070,-0.00924556,-0.02925678,-0.99952917
1314276045.35701966,-0.00936074,-0.02937083,-0.99952475
1314276045.41145492,-0.00913690,-0.02973770,-0.99951598
1314276045.45557833,-0.00896496,-0.02977248,-0.99951650
1314276045.50643206,-0.00899050,-0.02969961,-0.99951844
1314276045.55579710,-0.00886899,-0.02964238,-0.99952122
1314276045.60844541,-0.00861622,-0.03052292,-0.99949693
1314276045.64757371,-0.00876668,-0.03051996,-0.99949571
1314276045.70845056,-0.00892839,-0.03052029,-0.99949427
1314276045.75650406,-0.00885509,-0.03059427,-0.99949266
1314276045.79651618,-0.00887436,-0.03063409,-0.99949127
1314276045.85559916,-0.00900325,-0.03061913,-0.99949058
1314276045.90854144,-0.00947499,-0.03016770,-0.99949994
1314276045.95551610,-0.00943375,-0.03018872,-0.99949970
1314276046.00449824,-0.00942565,-0.03012695,-0.99950164
1314276046.05649042,-0.00965606,-0.03012226,-0.99949958
1314276046.10756612,-0.00987573,-0.02967102,-0.99951093
1314276046.15647745,-0.00986851,-0.02972416,-0.99950942
1314276046.20844412,-0.00985738,-0.02961294,-0.99951283
1314276046.25658822,-0.01006777,-0.02953903,-0.99951292
1314276046.29645538,-0.01006204,-0.02986676,-0.99950324
1314276046.35546446,-0.01008196,-0.02975137,-0.99950648
1314276046.40444732,-0.01032903,-0.02970806,-0.99950525
1314276046.45637441,-0.01029796,-0.02953357,-0.99951074
1314276046.50849366,-0.01017013,-0.02962651,-0.99950930
1314276046.55647564,-0.01025200,-0.02957681,-0.99950993
1314276046.60859442,-0.01023261,-0.02938522,-0.99951578
1314276046.65648913,-0.01022640,-0.02952788,-0.99951164
1314276046.70847821,-0.01040187,-0.02945023,-0.99951212
1314276046.75619769,-0.01035357,-0.02943054,-0.99951320
1314276046.80462146,-0.01032550,-0.02933592,-0.99951628
1314276046.85654759,-0.01055377,-0.02921868,-0.99951733
1314276046.90843415,-0.01014128,-0.02951932,-0.99951276
1314276046.95645881,-0.01017177,-0.02961978,-0.99950948
1314276047.00948358,-0.01042171,-0.02972065,-0.99950391
1314276047.05588937,-0.01062809,-0.02951423,-0.99950786
1314276047.10444307,-0.01027690,-0.03036300,-0.99948610
1314276047.15604091,-0.01003194,-0.03043291,-0.99948647
1314276047.20444822,-0.01020482,-0.03041005,-0.99948541
1314276047.25560260,-0.01005989,-0.03044884,-0.99948570
1314276047.30421567,-0.01013857,-0.03044277,-0.99948509
1314276047.35786843,-0.00886895,-0.03102045,-0.99947940
1314276047.40449595,-0.00894702,-0.03111594,-0.99947574
1314276047.45611286,-0.00962583,-0.03072760,-0.99948144
1314276047.50751781,-0.00974909,-0.03072034,-0.99948047
1314276047.55569339,-0.00987999,-0.03034518,-0.99949065
1314276047.60845280,-0.00979467,-0.03015082,-0.99949737
1314276047.65591359,-0.00983475,-0.02995327,-0.99950292
1314276047.70859981,-0.00999797,-0.02983364,-0.99950487
1314276047.75644565,-0.01001854,-0.02978051,-0.99950625
1314276047.80849004,-0.00978197,-0.02961874,-0.99951340
1314276047.85584617,-0.00980878,-0.02942996,-0.99951872
1314276047.90845156,-0.01001242,-0.02943921,-0.99951643
1314276047.95553088,-0.01024497,-0.02927905,-0.99951877
1314276048.00844574,-0.01018168,-0.02939903,-0.99951590
1314276048.05573678,-0.01018015,-0.02930866,-0.99951857
1314276048.10764432,-0.01030616,-0.02975584,-0.99950406
1314276048.15689898,-0.01041741,-0.02952653,-0.99950971
1314276048.20777106,-0.01020956,-0.02955270,-0.99951108
1314276048.25549722,-0.01013807,-0.02937206,-0.99951713
1314276048.29658413,-0.01009937,-0.02901954,-0.99952782
1314276048.35565639,-0.00999541,-0.02890754,-0.99953211
1314276048.40910530,-0.00954290,-0.02942421,-0.99952146
1314276048.45553088,-0.00978199,-0.02952280,-0.99951624
1314276048.50851250,-0.00968602,-0.02943852,-0.99951966
1314276048.55644917,-0.00969535,-0.02936999,-0.99952159
1314276048.60462427,-0.00850524,-0.03037798,-0.99950230
1314276048.65647411,-0.00842415,-0.03017769,-0.99950905
1314276048.70453620,-0.00839219,-0.03019198,-0.99950889
1314276048.75664353,-0.00874137,-0.03037941,-0.99950022
1314276048.80447865,-0.00887449,-0.03027602,-0.99950218
1314276048.85547328,-0.00795359,-0.03092535,-0.99949005
1314276048.90952420,-0.00805377,-0.03087012,-0.99949096
1314276048.95643187,-0.00803202,-0.03075960,-0.99949454
1314276049.00746799,-0.00797437,-0.03045419,-0.99950435
1314276049.05544639,-0.00803284,-0.03047991,-0.99950310
1314276049.10444784,-0.00789320,-0.03074089,-0.99949622
1314276049.15549707,-0.00805157,-0.03082415,-0.99949239
1314276049.20446658,-0.00796151,-0.03103326,-0.99948664
1314276049.25633717,-0.00799204,-0.03066743,-0.99949769
1314276049.31144071,-0.00800426,-0.03063786,-0.99949850
1314276049.35823011,-0.00788273,-0.02963197,-0.99952979
1314276049.40958405,-0.00774250,-0.02934136,-0.99953946
1314276049.45596123,-0.00764988,-0.02937242,-0.99953926
1314276049.50445724,-0.00737084,-0.02927749,-0.99954415
1314276049.55556488,-0.00749128,-0.02929089,-0.99954286
1314276049.60448670,-0.00700284,-0.02953755,-0.99953914
1314276049.65546608,-0.00720757,-0.02948253,-0.99953931
1314276049.70756769,-0.00726786,-0.02952959,-0.99953748
1314276049.75646019,-0.00743404,-0.02953264,-0.99953617
1314276049.81159449,-0.00742482,-0.02982059,-0.99952769
1314276049.85600638,-0.00685528,-0.03167649,-0.99947466
1314276049.90442896,-0.00711274,-0.03151502,-0.99947797
1314276049.95646715,-0.00705764,-0.03165864,-0.99947382
1314276050.00445127,-0.00673186,-0.03164929,-0.99947637
